Location: Newark
(41.1500°S, 172.6000°E)
Time: 11:37:14
(UTC+00:00)

Envisat - Visible Passes

Search period start: 20 September 2019 00:00
Search period end: 30 September 2019 00:00
Orbit: 764 x 766 km, 98.1° (Epoch: 20 September)

Date Brightness Start Highest point End Pass type
(mag) Time Alt. Az. Time Alt. Az. Time Alt. Az.
20 Sep 3.0 07:19:30 10° SSE 07:24:39 64° E 07:29:42 10° N visible
20 Sep 5.8 08:59:56 10° SSW 09:03:07 17° WSW 09:06:16 10° W visible
20 Sep 6.4 16:59:29 10° ESE 17:00:43 11° ESE 17:01:57 10° SE visible
21 Sep 4.7 08:22:07 10° S 08:26:44 34° WSW 08:31:18 10° NW visible
22 Sep 3.2 07:44:59 10° S 07:50:08 74° WSW 07:55:14 10° NNW visible
22 Sep 5.9 17:22:24 10° ENE 17:25:50 18° ESE 17:29:18 10° SSE visible
23 Sep 3.2 07:08:20 10° SSE 07:13:22 50° E 07:18:19 10° N visible
23 Sep 5.6 08:48:15 10° SSW 08:51:59 21° WSW 08:55:42 10° WNW visible
24 Sep 4.3 08:10:42 10° S 08:15:32 42° WSW 08:20:20 10° NW visible
24 Sep 5.3 17:46:39 10° NE 17:51:05 30° ESE 17:55:33 10° S visible
25 Sep 3.0 07:33:43 10° SSE 07:38:54 88° ENE 07:44:01 10° NNW visible
25 Sep 6.2 09:15:08 10° SW 09:17:08 12° WSW 09:19:08 10° W visible
25 Sep 6.1 17:11:55 10° E 17:14:44 15° ESE 17:17:33 10° SSE visible
26 Sep 3.5 06:57:13 10° SSE 07:02:04 40° E 07:06:50 10° NNE visible
26 Sep 5.2 08:36:41 10° SSW 08:40:51 25° WSW 08:44:58 10° WNW visible
27 Sep 3.8 07:59:20 10° S 08:04:21 53° WSW 08:09:18 10° NNW visible
27 Sep 5.7 17:35:50 10° ENE 17:39:55 25° ESE 17:44:03 10° SSE visible
28 Sep 3.0 07:22:29 10° SSE 07:27:39 70° ENE 07:32:43 10° N visible
28 Sep 6.0 09:03:08 10° SSW 09:06:03 15° WSW 09:08:56 10° W visible
28 Sep 6.3 17:01:48 10° E 17:03:38 12° ESE 17:05:29 10° SE visible
29 Sep 4.9 08:25:11 10° S 08:29:41 31° WSW 08:34:09 10° NW visible
